This demonstration page uses our WeatherBlox Daily Observations layout. Learn more.

Left ArrowRight Arrow

Hourly Observations for July 17, 2018

Temp ( °F °C ) Dew Point ( °F °C ) Humidity (%) Winds ( mph kmh ) Pressure ( in mb ) Visibility ( mi km ) Precip ( " mm )
12:17 am 00:17 Clear 72 22 72 22 100 100 N N/A 29.94 1014 7 11.26538 N/A
12:36 am 00:36 Clear 70 21 70 21 100 100 N N/A 29.94 1014 5 8.0467 N/A
12:57 am 00:57 Clear 70 21 70 21 100 100 N N/A 29.94 1014 3 4.82802 N/A
1:16 am 01:16 Partly Cloudy 72 22 72 22 100 100 N N/A 29.94 1014 2.5 4.02335 N/A
1:37 am 01:37 Partly Cloudy 70 21 70 21 100 100 N N/A 29.94 1014 4 6.43736 N/A
1:57 am 01:57 Mostly Cloudy 70 21 70 21 100 100 N N/A 29.94 1014 1.25 2.011675 N/A
2:16 am 02:16 Clear 70 21 70 21 100 100 N N/A 29.94 1014 5 8.0467 N/A
2:37 am 02:37 Clear 70 21 70 21 100 100 NNW 5 7 29.94 1014 7 11.26538 N/A
2:56 am 02:56 Partly Cloudy 72 22 72 22 100 100 N 5 7 29.94 1014 10 16.0934 N/A
3:17 am 03:17 Partly Cloudy 72 22 72 22 100 100 N 6 9 29.94 1014 10 16.0934 N/A
3:36 am 03:36 Partly Cloudy 72 22 72 22 100 100 N 7 11 29.94 1014 10 16.0934 N/A
3:56 am 03:56 Clear 72 22 72 22 100 100 N 6 9 29.94 1014 10 16.0934 N/A
4:17 am 04:17 Clear 70 21 70 21 100 100 N 3 6 29.94 1014 10 16.0934 N/A
4:36 am 04:36 Clear 68 20 68 20 100 100 N 6 9 29.97 1015 10 16.0934 N/A
4:57 am 04:57 Clear 68 20 68 20 100 100 N 6 9 29.97 1015 10 16.0934 N/A
5:16 am 05:16 Clear 68 20 68 20 100 100 N 5 7 30 1016 10 16.0934 N/A
5:36 am 05:36 Clear 66 19 66 19 100 100 N 5 7 30 1016 10 16.0934 N/A
5:57 am 05:57 Clear 66 19 66 19 100 100 N N/A 30 1016 10 16.0934 N/A
6:16 am 06:16 Clear 66 19 66 19 100 100 N N/A 30 1016 10 16.0934 N/A
6:37 am 06:37 Sunny 64 18 64 18 100 100 N 5 7 30 1016 10 16.0934 N/A
6:56 am 06:56 Sunny 64 18 64 18 100 100 N 6 9 30 1016 10 16.0934 N/A
7:16 am 07:16 Sunny 66 19 66 19 100 100 N 3 6 30 1016 10 16.0934 N/A
7:36 am 07:36 Sunny 66 19 66 19 100 100 N 3 6 30.03 1017 10 16.0934 N/A
7:57 am 07:57 Sunny 68 20 68 20 100 100 N N/A 30.03 1017 10 16.0934 N/A
8:17 am 08:17 Sunny 70 21 68 20 94 94 N N/A 30 1016 10 16.0934 N/A
8:37 am 08:37 Sunny 72 22 68 20 88 88 N 3 6 30 1016 10 16.0934 N/A
8:57 am 08:57 Sunny 72 22 68 20 88 88 N 5 7 30 1016 10 16.0934 N/A
9:16 am 09:16 Sunny 73 23 68 20 83 83 N 6 9 30.03 1017 10 16.0934 N/A
9:37 am 09:37 Sunny 73 23 68 20 83 83 N 5 7 30.03 1017 10 16.0934 N/A
9:56 am 09:56 Sunny 75 24 68 20 78 78 N 7 11 30.03 1017 10 16.0934 N/A
10:17 am 10:17 Sunny 77 25 68 20 74 74 N 8 13 30.03 1017 10 16.0934 N/A
10:37 am 10:37 Sunny 77 25 66 19 69 69 N 8 13 30.03 1017 10 16.0934 N/A
10:56 am 10:56 Sunny 77 25 68 20 74 74 N 7 11 30.03 1017 10 16.0934 N/A
11:17 am 11:17 Sunny 79 26 68 20 70 70 N 7 11 30.03 1017 10 16.0934 N/A
11:36 am 11:36 Sunny 79 26 70 21 74 74 N 8 13 30.03 1017 10 16.0934 N/A
11:57 am 11:57 Sunny 81 27 68 20 66 66 N 7 11 30.03 1017 10 16.0934 N/A
12:16 pm 12:16 Sunny 81 27 68 20 66 66 N 8 13 30.03 1017 10 16.0934 N/A
12:37 pm 12:37 Sunny 81 27 68 20 66 66 N 10 17 30.03 1017 10 16.0934 N/A
12:57 pm 12:57 Sunny 82 28 68 20 62 62 N 10 17 30.03 1017 10 16.0934 N/A
1:16 pm 13:16 Sunny 82 28 70 21 66 66 N 9 15 30.03 1017 10 16.0934 N/A
1:37 pm 13:37 Sunny 82 28 68 20 62 62 NNE 9 15 30.03 1017 10 16.0934 N/A
1:56 pm 13:56 Sunny 82 28 66 19 58 58 N 10 17 30.03 1017 10 16.0934 N/A
2:17 pm 14:17 Sunny 82 28 66 19 58 58 N 12 19 30.03 1017 10 16.0934 N/A
2:36 pm 14:36 Sunny 82 28 68 20 62 62 NNE 9 15 30.03 1017 10 16.0934 N/A
2:57 pm 14:57 Sunny 84 29 66 19 55 55 N 12 19 30 1016 10 16.0934 N/A
3:16 pm 15:16 Sunny 84 29 66 19 55 55 N 6 9 30 1016 10 16.0934 N/A
3:36 pm 15:36 Sunny 84 29 68 20 58 58 N 9 15 30 1016 10 16.0934 N/A
3:56 pm 15:56 Sunny 84 29 66 19 55 55 NNW 10 17 30 1016 10 16.0934 N/A
4:16 pm 16:16 Sunny 84 29 66 19 55 55 N 13 20 30 1016 10 16.0934 N/A
4:37 pm 16:37 Sunny 84 29 68 20 58 58 N 10 17 30 1016 10 16.0934 N/A
4:56 pm 16:56 Partly Cloudy 82 28 66 19 58 58 N 8 13 30 1016 10 16.0934 N/A
5:16 pm 17:16 Mostly Cloudy 82 28 68 20 62 62 N 7 11 30 1016 10 16.0934 N/A
5:37 pm 17:37 Partly Cloudy 82 28 70 21 66 66 N 7 11 30 1016 10 16.0934 N/A
5:56 pm 17:56 Mostly Cloudy 82 28 68 20 62 62 N 9 15 30 1016 10 16.0934 N/A
6:17 pm 18:17 Mostly Cloudy 81 27 68 20 66 66 N 6 9 30 1016 10 16.0934 N/A
6:37 pm 18:37 Mostly Cloudy 82 28 68 20 62 62 NNW 9 15 30 1016 10 16.0934 N/A
6:56 pm 18:56 Partly Cloudy 81 27 66 19 62 62 N 15 24 30 1016 10 16.0934 N/A
7:17 pm 19:17 Sunny 81 27 66 19 62 62 N 10 17 30 1016 10 16.0934 N/A
7:37 pm 19:37 Sunny 81 27 66 19 62 62 N 10 17 30 1016 10 16.0934 N/A
7:56 pm 19:56 Sunny 79 26 68 20 70 70 NNE 6 9 30 1016 10 16.0934 N/A
8:17 pm 20:17 Sunny 77 25 68 20 74 74 NNE 8 13 30 1016 10 16.0934 N/A
8:36 pm 20:36 Sunny 75 24 68 20 78 78 NNE 7 11 30 1016 10 16.0934 N/A
8:56 pm 20:56 Sunny 73 23 66 19 78 78 N 7 11 30 1016 10 16.0934 N/A
9:17 pm 21:17 Partly Cloudy 72 22 66 19 83 83 N 9 15 30 1016 10 16.0934 N/A
9:36 pm 21:36 Partly Cloudy 72 22 66 19 83 83 N 8 13 30.03 1017 10 16.0934 N/A
9:56 pm 21:56 Clear 72 22 64 18 78 78 N 8 13 30.03 1017 10 16.0934 N/A
10:17 pm 22:17 Partly Cloudy 70 21 64 18 83 83 N 7 11 30.06 1018 10 16.0934 N/A
10:36 pm 22:36 Clear 68 20 64 18 88 88 N 6 9 30.06 1018 10 16.0934 N/A
10:57 pm 22:57 Partly Cloudy 68 20 64 18 88 88 NNE 5 7 30.06 1018 10 16.0934 N/A
11:17 pm 23:17 Partly Cloudy 68 20 64 18 88 88 N N/A 30.06 1018 10 16.0934 N/A
11:36 pm 23:36 Partly Cloudy 66 19 64 18 94 94 N 6 9 30.09 1019 10 16.0934 N/A
11:57 pm 23:57 Clear 66 19 63 17 88 88 N 6 9 30.09 1019 10 16.0934 N/A

Powered by AerisWeather